Time,TemperatureF,DewpointF,PressureIn,WindDirection,WindDirectionDegrees,WindSpeedMPH,WindSpeedGustMPH,Humidity,HourlyPrecipIn,Conditions,Clouds,dailyrainin,SoftwareType,DateUTC
2013-02-19 00:00:00,34.0,27.9,31.66,SSE,165,0.0,0.0,78,0.00,,,0.00,Wunderground v.1.15,2013-02-19 05:00:00,
2013-02-19 00:05:00,33.7,27.6,31.66,SSE,165,0.0,0.0,78,0.00,,,0.00,Wunderground v.1.15,2013-02-19 05:05:00,
2013-02-19 00:15:00,33.2,28.0,31.66,SSE,165,0.0,0.0,81,0.00,,,0.00,Wunderground v.1.15,2013-02-19 05:15:00,
2013-02-19 00:20:00,33.2,28.3,31.66,SSE,165,0.0,0.0,82,0.00,,,0.00,Wunderground v.1.15,2013-02-19 05:20:00,
2013-02-19 00:25:00,33.0,28.4,31.66,SSE,165,0.0,0.0,83,0.00,,,0.00,Wunderground v.1.15,2013-02-19 05:25:00,
2013-02-19 00:30:00,32.9,28.3,31.66,SSE,165,0.0,0.0,83,0.00,,,0.00,Wunderground v.1.15,2013-02-19 05:30:00,
2013-02-19 00:35:00,32.6,28.0,31.66,SSE,165,0.0,0.0,83,0.00,,,0.00,Wunderground v.1.15,2013-02-19 05:35:00,
2013-02-19 00:40:00,32.4,28.1,31.66,SSE,165,0.0,0.0,84,0.00,,,0.00,Wunderground v.1.15,2013-02-19 05:40:00,
2013-02-19 00:45:00,32.2,28.2,31.66,SSE,165,0.0,0.0,85,0.00,,,0.00,Wunderground v.1.15,2013-02-19 05:45:00,
2013-02-19 00:50:00,32.0,28.0,31.66,SSE,165,0.0,0.0,85,0.00,,,0.00,Wunderground v.1.15,2013-02-19 05:50:00,
2013-02-19 00:55:00,31.9,28.2,31.66,SSE,165,0.0,0.0,86,0.00,,,0.00,Wunderground v.1.15,2013-02-19 05:55:00,
2013-02-19 01:00:00,31.8,28.4,31.66,SSE,165,0.0,0.0,87,0.00,,,0.00,Wunderground v.1.15,2013-02-19 06:00:00,
2013-02-19 01:05:00,31.8,28.4,31.66,SSE,164,0.0,0.0,87,0.00,,,0.00,Wunderground v.1.15,2013-02-19 06:05:00,
2013-02-19 01:10:00,31.8,28.4,31.66,SSE,165,0.0,0.0,87,0.00,,,0.00,Wunderground v.1.15,2013-02-19 06:10:00,
2013-02-19 01:15:00,31.9,28.5,31.66,SSE,165,0.0,0.0,87,0.00,,,0.00,Wunderground v.1.15,2013-02-19 06:15:00,
2013-02-19 01:20:00,31.7,28.0,31.66,SSE,165,0.0,0.0,86,0.00,,,0.00,Wunderground v.1.15,2013-02-19 06:20:00,
2013-02-19 01:25:00,31.6,29.5,31.66,SSE,165,0.0,0.0,92,0.00,,,0.00,Wunderground v.1.15,2013-02-19 06:25:00,
2013-02-19 01:30:00,31.5,27.8,31.66,SSE,165,0.0,0.0,86,0.00,,,0.00,Wunderground v.1.15,2013-02-19 06:30:00,
2013-02-19 01:35:00,31.5,28.1,31.66,SSE,164,0.0,0.0,87,0.00,,,0.00,Wunderground v.1.15,2013-02-19 06:35:00,
2013-02-19 01:40:00,31.5,28.1,31.66,SSE,165,0.0,0.0,87,0.00,,,0.00,Wunderground v.1.15,2013-02-19 06:40:00,
2013-02-19 01:45:00,31.5,28.4,31.66,SSE,165,0.0,0.0,88,0.00,,,0.00,Wunderground v.1.15,2013-02-19 06:45:00,
2013-02-19 01:50:00,31.6,28.5,31.66,SSE,165,0.0,0.0,88,0.00,,,0.00,Wunderground v.1.15,2013-02-19 06:50:00,
2013-02-19 02:00:00,31.8,28.9,31.66,SSE,165,0.0,0.0,89,0.00,,,0.00,Wunderground v.1.15,2013-02-19 07:00:00,
2013-02-19 02:05:00,32.0,29.1,31.66,SSE,165,0.0,0.0,89,0.00,,,0.00,Wunderground v.1.15,2013-02-19 07:05:00,
2013-02-19 02:15:00,32.7,30.1,31.66,SSE,165,0.0,0.0,90,0.00,,,0.00,Wunderground v.1.15,2013-02-19 07:15:00,
2013-02-19 02:20:00,33.2,30.3,31.66,SSE,165,0.0,0.0,89,0.00,,,0.00,Wunderground v.1.15,2013-02-19 07:20:00,
2013-02-19 02:30:00,33.4,29.9,31.66,SSE,165,0.0,0.0,87,0.00,,,0.00,Wunderground v.1.15,2013-02-19 07:30:00,
2013-02-19 02:35:00,33.4,29.9,31.66,SSE,165,0.0,0.0,87,0.00,,,0.00,Wunderground v.1.15,2013-02-19 07:35:00,
2013-02-19 02:45:00,33.1,30.2,31.66,SSE,167,0.0,0.0,89,0.00,,,0.00,Wunderground v.1.15,2013-02-19 07:45:00,
2013-02-19 02:50:00,33.2,30.3,31.66,SSE,167,0.0,0.0,89,0.00,,,0.00,Wunderground v.1.15,2013-02-19 07:50:00,
2013-02-19 02:55:00,33.2,30.0,31.66,SSE,167,0.0,0.0,88,0.00,,,0.00,Wunderground v.1.15,2013-02-19 07:55:00,
2013-02-19 03:05:00,33.1,30.2,31.66,SSE,167,0.0,0.0,89,0.00,,,0.00,Wunderground v.1.15,2013-02-19 08:05:00,
2013-02-19 03:15:00,33.0,29.8,31.66,SSE,167,0.0,0.0,88,0.00,,,0.00,Wunderground v.1.15,2013-02-19 08:15:00,
2013-02-19 03:20:00,33.0,30.1,31.66,SSE,167,0.0,0.0,89,0.00,,,0.00,Wunderground v.1.15,2013-02-19 08:20:00,
2013-02-19 03:25:00,33.1,30.2,31.66,SSE,167,0.0,0.0,89,0.00,,,0.00,Wunderground v.1.15,2013-02-19 08:25:00,
2013-02-19 03:35:00,33.3,30.4,31.66,SSE,167,0.0,0.0,89,0.00,,,0.00,Wunderground v.1.15,2013-02-19 08:35:00,
2013-02-19 03:40:00,33.5,30.3,31.66,SSE,167,0.0,0.0,88,0.00,,,0.00,Wunderground v.1.15,2013-02-19 08:40:00,
2013-02-19 03:45:00,33.6,30.4,31.66,SSE,167,0.0,0.0,88,0.00,,,0.00,Wunderground v.1.15,2013-02-19 08:45:00,
2013-02-19 03:50:00,33.6,30.1,31.66,SSE,167,0.0,0.0,87,0.00,,,0.00,Wunderground v.1.15,2013-02-19 08:50:00,
2013-02-19 03:55:00,33.4,29.9,31.66,SSE,167,0.0,0.0,87,0.00,,,0.00,Wunderground v.1.15,2013-02-19 08:55:00,
2013-02-19 04:05:00,33.0,30.1,31.66,SSE,167,0.0,0.0,89,0.00,,,0.00,Wunderground v.1.15,2013-02-19 09:05:00,
2013-02-19 04:10:00,32.8,29.9,31.66,SSE,167,0.0,0.0,89,0.00,,,0.00,Wunderground v.1.15,2013-02-19 09:10:00,
2013-02-19 04:15:00,32.6,29.7,31.66,SSE,167,0.0,0.0,89,0.00,,,0.00,Wunderground v.1.15,2013-02-19 09:15:00,
2013-02-19 04:20:00,32.5,29.9,31.66,SSE,167,0.0,0.0,90,0.00,,,0.00,Wunderground v.1.15,2013-02-19 09:20:00,
2013-02-19 04:25:00,32.4,29.8,31.66,SSE,167,0.0,0.0,90,0.00,,,0.00,Wunderground v.1.15,2013-02-19 09:25:00,
2013-02-19 04:30:00,32.3,29.7,31.66,SSE,167,0.0,0.0,90,0.00,,,0.00,Wunderground v.1.15,2013-02-19 09:30:00,
2013-02-19 04:35:00,32.2,29.6,31.66,SSE,167,0.0,0.0,90,0.00,,,0.00,Wunderground v.1.15,2013-02-19 09:35:00,
2013-02-19 04:40:00,32.1,29.5,31.66,SSE,167,0.0,0.0,90,0.00,,,0.00,Wunderground v.1.15,2013-02-19 09:40:00,
2013-02-19 04:45:00,32.0,29.4,31.66,SSE,167,0.0,0.0,90,0.00,,,0.00,Wunderground v.1.15,2013-02-19 09:45:00,
2013-02-19 04:50:00,31.9,29.3,31.66,SSE,167,0.0,0.0,90,0.00,,,0.00,Wunderground v.1.15,2013-02-19 09:50:00,
2013-02-19 04:55:00,31.9,29.6,31.66,SSE,167,0.0,0.0,91,0.00,,,0.00,Wunderground v.1.15,2013-02-19 09:55:00,
2013-02-19 05:00:00,32.1,29.8,31.66,SSE,167,0.0,0.0,91,0.00,,,0.00,Wunderground v.1.15,2013-02-19 10:00:00,
2013-02-19 05:05:00,32.2,29.9,31.66,SSE,167,0.0,0.0,91,0.00,,,0.00,Wunderground v.1.15,2013-02-19 10:05:00,
2013-02-19 05:15:00,32.5,30.2,31.66,SSE,167,0.0,0.0,91,0.00,,,0.00,Wunderground v.1.15,2013-02-19 10:15:00,
2013-02-19 05:20:00,32.5,30.2,31.66,SSE,167,0.0,0.0,91,0.00,,,0.00,Wunderground v.1.15,2013-02-19 10:20:00,
2013-02-19 05:30:00,32.6,30.3,31.66,SSE,167,0.0,0.0,91,0.00,,,0.00,Wunderground v.1.15,2013-02-19 10:30:00,
2013-02-19 05:35:00,32.6,30.3,31.66,SSE,167,0.0,0.0,91,0.00,,,0.00,Wunderground v.1.15,2013-02-19 10:35:00,
2013-02-19 05:40:00,32.6,30.3,31.66,SSE,167,0.0,0.0,91,0.00,,,0.00,Wunderground v.1.15,2013-02-19 10:40:00,
2013-02-19 05:45:00,32.5,30.2,31.66,SSE,167,0.0,0.0,91,0.00,,,0.00,Wunderground v.1.15,2013-02-19 10:45:00,
2013-02-19 05:50:00,32.3,29.7,31.66,SSE,167,0.0,0.0,90,0.00,,,0.00,Wunderground v.1.15,2013-02-19 10:50:00,
2013-02-19 05:55:00,32.1,29.8,31.66,SSE,167,0.0,0.0,91,0.00,,,0.00,Wunderground v.1.15,2013-02-19 10:55:00,
2013-02-19 06:05:00,32.0,29.7,31.66,SSE,167,0.0,0.0,91,0.00,,,0.00,Wunderground v.1.15,2013-02-19 11:05:00,
2013-02-19 06:10:00,31.9,29.6,31.66,SSE,167,0.0,0.0,91,0.00,,,0.00,Wunderground v.1.15,2013-02-19 11:10:00,
2013-02-19 06:15:00,31.7,29.4,31.66,SSE,167,0.0,0.0,91,0.00,,,0.00,Wunderground v.1.15,2013-02-19 11:15:00,
2013-02-19 06:20:00,31.6,29.3,31.66,SSE,167,0.0,0.0,91,0.00,,,0.00,Wunderground v.1.15,2013-02-19 11:20:00,
2013-02-19 06:25:00,31.6,29.3,31.66,SSE,167,0.0,0.0,91,0.00,,,0.00,Wunderground v.1.15,2013-02-19 11:25:00,
2013-02-19 06:30:00,31.5,29.4,31.66,SSE,167,0.0,0.0,92,0.00,,,0.00,Wunderground v.1.15,2013-02-19 11:30:00,
2013-02-19 06:35:00,31.5,29.4,31.66,SSE,167,0.0,0.0,92,0.00,,,0.00,Wunderground v.1.15,2013-02-19 11:35:00,
2013-02-19 06:40:00,31.5,29.4,31.66,SSE,167,0.0,0.0,92,0.00,,,0.00,Wunderground v.1.15,2013-02-19 11:40:00,
2013-02-19 06:45:00,31.6,29.8,31.66,SSE,167,0.0,0.0,93,0.00,,,0.00,Wunderground v.1.15,2013-02-19 11:45:00,
2013-02-19 06:50:00,31.7,29.9,31.66,SSE,167,0.0,0.0,93,0.00,,,0.00,Wunderground v.1.15,2013-02-19 11:50:00,
2013-02-19 06:55:00,31.8,30.0,31.66,SSE,167,0.0,0.0,93,0.00,,,0.00,Wunderground v.1.15,2013-02-19 11:55:00,
2013-02-19 07:00:00,31.9,30.1,31.66,SSE,167,0.0,0.0,93,0.00,,,0.00,Wunderground v.1.15,2013-02-19 12:00:00,
2013-02-19 07:05:00,32.0,30.2,31.66,SSE,167,0.0,0.0,93,0.00,,,0.00,Wunderground v.1.15,2013-02-19 12:05:00,
2013-02-19 07:10:00,32.2,30.4,31.66,SSE,167,0.0,0.0,93,0.00,,,0.00,Wunderground v.1.15,2013-02-19 12:10:00,
2013-02-19 07:15:00,32.5,30.7,31.66,SSE,167,0.0,0.0,93,0.00,,,0.00,Wunderground v.1.15,2013-02-19 12:15:00,
2013-02-19 07:25:00,33.3,31.8,31.66,SSE,167,0.0,0.0,94,0.00,,,0.00,Wunderground v.1.15,2013-02-19 12:25:00,
2013-02-19 07:30:00,33.8,32.3,31.66,SSE,167,0.0,0.0,94,0.00,,,0.00,Wunderground v.1.15,2013-02-19 12:30:00,
2013-02-19 07:35:00,34.3,32.8,31.66,SSE,167,0.0,0.0,94,0.00,,,0.00,Wunderground v.1.15,2013-02-19 12:35:00,
2013-02-19 07:40:00,34.6,33.1,31.66,SSE,167,0.0,0.0,94,0.00,,,0.00,Wunderground v.1.15,2013-02-19 12:40:00,
2013-02-19 07:45:00,35.1,33.5,31.66,SSE,167,0.0,0.0,94,0.00,,,0.00,Wunderground v.1.15,2013-02-19 12:45:00,
2013-02-19 07:50:00,35.7,34.1,31.66,SSE,167,0.0,0.0,94,0.00,,,0.00,Wunderground v.1.15,2013-02-19 12:50:00,
2013-02-19 07:55:00,36.2,34.6,31.66,SSE,167,0.0,0.0,94,0.00,,,0.00,Wunderground v.1.15,2013-02-19 12:55:00,
2013-02-19 08:00:00,36.5,34.7,31.66,SSE,167,0.0,0.0,93,0.00,,,0.00,Wunderground v.1.15,2013-02-19 13:00:00,
2013-02-19 08:05:00,36.7,34.6,31.66,SSE,167,0.0,0.0,92,0.00,,,0.00,Wunderground v.1.15,2013-02-19 13:05:00,
2013-02-19 08:15:00,37.2,35.1,31.66,SSE,167,0.0,0.0,92,0.00,,,0.00,Wunderground v.1.15,2013-02-19 13:15:00,
2013-02-19 08:20:00,37.5,35.4,31.66,SSE,167,0.0,0.0,92,0.00,,,0.00,Wunderground v.1.15,2013-02-19 13:20:00,
2013-02-19 08:25:00,37.8,35.7,31.66,SSE,167,0.0,0.0,92,0.00,,,0.00,Wunderground v.1.15,2013-02-19 13:25:00,
2013-02-19 08:30:00,38.3,36.2,31.66,SSE,167,0.0,0.0,92,0.00,,,0.00,Wunderground v.1.15,2013-02-19 13:30:00,
2013-02-19 08:35:00,38.8,36.4,31.66,SSE,167,0.0,0.0,91,0.00,,,0.00,Wunderground v.1.15,2013-02-19 13:35:00,
2013-02-19 08:40:00,39.2,36.8,31.66,South,178,0.0,2.0,91,0.00,,,0.00,Wunderground v.1.15,2013-02-19 13:40:00,
2013-02-19 08:45:00,39.6,36.9,31.66,South,178,0.0,2.0,90,0.00,,,0.00,Wunderground v.1.15,2013-02-19 13:45:00,
2013-02-19 08:50:00,40.0,37.3,31.66,South,178,0.0,0.0,90,0.00,,,0.00,Wunderground v.1.15,2013-02-19 13:50:00,
2013-02-19 09:00:00,41.1,38.1,31.66,South,178,0.0,0.0,89,0.00,,,0.00,Wunderground v.1.15,2013-02-19 14:00:00,
2013-02-19 09:05:00,41.7,38.4,31.66,South,176,0.0,0.0,88,0.00,,,0.00,Wunderground v.1.15,2013-02-19 14:05:00,
2013-02-19 09:15:00,42.9,39.6,31.66,SW,232,1.0,1.0,88,0.00,,,0.00,Wunderground v.1.15,2013-02-19 14:15:00,
2013-02-19 09:20:00,43.6,40.3,31.66,SW,230,0.0,2.0,88,0.00,,,0.00,Wunderground v.1.15,2013-02-19 14:20:00,
2013-02-19 09:25:00,44.2,40.6,31.66,SSW,207,1.0,2.0,87,0.00,,,0.00,Wunderground v.1.15,2013-02-19 14:25:00,
2013-02-19 09:35:00,45.7,41.8,31.66,South,169,1.0,2.0,86,0.00,,,0.00,Wunderground v.1.15,2013-02-19 14:35:00,
2013-02-19 09:40:00,46.6,42.6,31.66,SSE,150,1.0,2.0,86,0.00,,,0.00,Wunderground v.1.15,2013-02-19 14:40:00,
2013-02-19 09:45:00,47.3,42.7,31.66,SSE,152,1.0,2.0,84,0.00,,,0.00,Wunderground v.1.15,2013-02-19 14:45:00,
2013-02-19 09:50:00,47.8,43.2,31.66,SSW,200,1.0,1.0,84,0.00,,,0.00,Wunderground v.1.15,2013-02-19 14:50:00,
2013-02-19 09:55:00,48.4,43.5,31.66,SW,231,1.0,1.0,83,0.00,,,0.00,Wunderground v.1.15,2013-02-19 14:55:00,
2013-02-19 10:00:00,48.8,43.5,31.66,SW,220,1.0,3.0,82,0.00,,,0.00,Wunderground v.1.15,2013-02-19 15:00:00,
2013-02-19 10:05:00,49.1,43.8,31.66,SW,218,0.0,3.0,82,0.00,,,0.00,Wunderground v.1.15,2013-02-19 15:05:00,
2013-02-19 10:10:00,49.3,44.0,31.66,SW,221,1.0,1.0,82,0.00,,,0.00,Wunderground v.1.15,2013-02-19 15:10:00,
2013-02-19 10:15:00,49.4,44.1,31.66,SW,217,1.0,1.0,82,0.00,,,0.00,Wunderground v.1.15,2013-02-19 15:15:00,
2013-02-19 10:20:00,49.6,44.3,31.66,SW,217,0.0,0.0,82,0.00,,,0.00,Wunderground v.1.15,2013-02-19 15:20:00,
2013-02-19 10:30:00,50.2,44.6,31.66,WSW,238,0.0,0.0,81,0.00,,,0.00,Wunderground v.1.15,2013-02-19 15:30:00,
2013-02-19 10:35:00,50.5,45.2,31.66,WSW,238,1.0,1.0,82,0.00,,,0.00,Wunderground v.1.15,2013-02-19 15:35:00,
2013-02-19 10:40:00,50.7,45.7,31.66,WSW,238,1.0,1.0,83,0.00,,,0.00,Wunderground v.1.15,2013-02-19 15:40:00,
2013-02-19 10:45:00,51.0,46.0,31.66,WSW,240,0.0,1.0,83,0.00,,,0.00,Wunderground v.1.15,2013-02-19 15:45:00,
2013-02-19 10:50:00,51.1,46.7,31.66,WSW,240,0.0,0.0,85,0.00,,,0.00,Wunderground v.1.15,2013-02-19 15:50:00,
2013-02-19 10:55:00,51.2,47.2,31.66,SW,219,0.0,2.0,86,0.00,,,0.00,Wunderground v.1.15,2013-02-19 15:55:00,
2013-02-19 11:00:00,51.2,47.8,31.66,SSW,209,1.0,2.0,88,0.00,,,0.01,Wunderground v.1.15,2013-02-19 16:00:00,
2013-02-19 11:05:00,51.2,48.1,31.66,SW,215,2.0,2.0,89,0.00,,,0.01,Wunderground v.1.15,2013-02-19 16:05:00,
2013-02-19 11:15:00,51.1,48.9,31.66,SSW,197,2.0,4.0,92,0.13,,,0.04,Wunderground v.1.15,2013-02-19 16:15:00,
2013-02-19 11:20:00,50.9,48.7,31.66,SW,234,1.0,2.0,92,0.19,,,0.05,Wunderground v.1.15,2013-02-19 16:20:00,
2013-02-19 11:25:00,50.8,48.8,31.66,SW,235,2.0,7.0,93,0.12,,,0.06,Wunderground v.1.15,2013-02-19 16:25:00,
2013-02-19 11:30:00,50.7,48.7,31.66,WNW,300,4.0,4.0,93,0.13,,,0.07,Wunderground v.1.15,2013-02-19 16:30:00,
2013-02-19 11:35:00,50.6,48.9,31.66,SW,235,4.0,4.0,94,0.07,,,0.08,Wunderground v.1.15,2013-02-19 16:35:00,
2013-02-19 11:45:00,50.6,49.2,31.66,SW,231,2.0,4.0,95,0.13,,,0.10,Wunderground v.1.15,2013-02-19 16:45:00,
2013-02-19 11:50:00,50.6,49.2,31.66,SW,227,2.0,2.0,95,0.11,,,0.11,Wunderground v.1.15,2013-02-19 16:50:00,
2013-02-19 11:55:00,50.7,49.3,31.66,SW,223,2.0,5.0,95,0.11,,,0.11,Wunderground v.1.15,2013-02-19 16:55:00,
2013-02-19 12:00:00,50.8,49.7,31.66,SW,232,2.0,2.0,96,0.06,,,0.11,Wunderground v.1.15,2013-02-19 17:00:00,
2013-02-19 12:05:00,51.1,50.0,31.66,West,259,3.0,7.0,96,0.06,,,0.12,Wunderground v.1.15,2013-02-19 17:05:00,
2013-02-19 12:10:00,51.4,50.3,31.66,WSW,249,4.0,4.0,96,0.06,,,0.12,Wunderground v.1.15,2013-02-19 17:10:00,
2013-02-19 12:15:00,51.6,50.5,31.66,South,189,4.0,4.0,96,0.04,,,0.12,Wunderground v.1.15,2013-02-19 17:15:00,
2013-02-19 12:20:00,51.9,51.1,31.66,SSW,210,3.0,5.0,97,0.00,,,0.12,Wunderground v.1.15,2013-02-19 17:20:00,
2013-02-19 12:25:00,52.2,51.1,31.66,WSW,250,4.0,6.0,96,0.00,,,0.12,Wunderground v.1.15,2013-02-19 17:25:00,
2013-02-19 12:30:00,52.6,51.8,31.66,SW,224,5.0,5.0,97,0.00,,,0.12,Wunderground v.1.15,2013-02-19 17:30:00,
2013-02-19 12:35:00,52.7,51.6,31.66,West,271,5.0,7.0,96,0.00,,,0.12,Wunderground v.1.15,2013-02-19 17:35:00,
2013-02-19 12:45:00,52.9,51.2,31.66,SW,220,6.0,14.0,94,0.00,,,0.12,Wunderground v.1.15,2013-02-19 17:45:00,
2013-02-19 12:50:00,53.1,51.7,31.66,WSW,248,6.0,6.0,95,0.00,,,0.12,Wunderground v.1.15,2013-02-19 17:50:00,
2013-02-19 12:55:00,53.4,52.0,31.66,SW,221,5.0,6.0,95,0.00,,,0.12,Wunderground v.1.15,2013-02-19 17:55:00,
2013-02-19 13:00:00,53.5,51.8,31.66,SW,232,4.0,11.0,94,0.00,,,0.12,Wunderground v.1.15,2013-02-19 18:00:00,
2013-02-19 13:05:00,53.6,51.6,31.66,SSW,209,5.0,11.0,93,0.00,,,0.12,Wunderground v.1.15,2013-02-19 18:05:00,
2013-02-19 13:10:00,53.7,51.7,31.66,SW,231,6.0,6.0,93,0.00,,,0.12,Wunderground v.1.15,2013-02-19 18:10:00,
2013-02-19 13:15:00,53.8,51.8,31.66,WSW,242,7.0,9.0,93,0.00,,,0.12,Wunderground v.1.15,2013-02-19 18:15:00,
2013-02-19 13:20:00,54.0,52.0,31.66,SSW,196,8.0,12.0,93,0.00,,,0.12,Wunderground v.1.15,2013-02-19 18:20:00,
2013-02-19 13:25:00,54.0,52.0,31.66,WSW,238,7.0,12.0,93,0.00,,,0.12,Wunderground v.1.15,2013-02-19 18:25:00,
2013-02-19 13:30:00,54.0,52.0,31.66,SSW,195,7.0,7.0,93,0.00,,,0.12,Wunderground v.1.15,2013-02-19 18:30:00,
2013-02-19 13:35:00,54.1,52.1,31.66,SSW,197,7.0,7.0,93,0.00,,,0.13,Wunderground v.1.15,2013-02-19 18:35:00,
2013-02-19 13:40:00,54.2,52.5,31.66,WSW,248,7.0,7.0,94,0.00,,,0.13,Wunderground v.1.15,2013-02-19 18:40:00,
2013-02-19 13:45:00,54.3,52.6,31.66,SW,236,7.0,10.0,94,0.00,,,0.13,Wunderground v.1.15,2013-02-19 18:45:00,
2013-02-19 13:50:00,54.5,52.5,31.66,WNW,303,6.0,10.0,93,0.00,,,0.13,Wunderground v.1.15,2013-02-19 18:50:00,
2013-02-19 13:55:00,54.9,53.2,31.66,SW,232,6.0,10.0,94,0.00,,,0.13,Wunderground v.1.15,2013-02-19 18:55:00,
2013-02-19 14:00:00,55.2,53.2,31.66,WSW,238,6.0,6.0,93,0.00,,,0.13,Wunderground v.1.15,2013-02-19 19:00:00,
2013-02-19 14:05:00,55.5,53.2,31.66,SSW,209,6.0,6.0,92,0.00,,,0.13,Wunderground v.1.15,2013-02-19 19:05:00,
2013-02-19 14:10:00,55.5,52.9,31.66,SW,223,6.0,6.0,91,0.00,,,0.13,Wunderground v.1.15,2013-02-19 19:10:00,
2013-02-19 14:20:00,55.3,53.0,31.66,SW,227,7.0,7.0,92,0.00,,,0.13,Wunderground v.1.15,2013-02-19 19:20:00,
2013-02-19 14:25:00,54.9,52.9,31.66,SW,223,6.0,7.0,93,0.00,,,0.13,Wunderground v.1.15,2013-02-19 19:25:00,
2013-02-19 14:35:00,54.4,53.0,31.66,WSW,257,5.0,5.0,95,0.00,,,0.14,Wunderground v.1.15,2013-02-19 19:35:00,
2013-02-19 14:40:00,54.3,53.2,31.66,SSW,211,6.0,6.0,96,0.00,,,0.14,Wunderground v.1.15,2013-02-19 19:40:00,
2013-02-19 14:50:00,54.2,53.1,31.66,SW,230,5.0,7.0,96,0.00,,,0.14,Wunderground v.1.15,2013-02-19 19:50:00,
2013-02-19 14:55:00,54.2,53.4,31.66,SW,236,5.0,9.0,97,0.00,,,0.14,Wunderground v.1.15,2013-02-19 19:55:00,
2013-02-19 15:05:00,54.0,53.2,31.66,WSW,248,5.0,8.0,97,0.00,,,0.14,Wunderground v.1.15,2013-02-19 20:05:00,
2013-02-19 15:15:00,54.0,53.2,31.66,SSW,195,5.0,5.0,97,0.00,,,0.15,Wunderground v.1.15,2013-02-19 20:15:00,
2013-02-19 15:20:00,53.9,53.1,31.66,WSW,244,5.0,7.0,97,0.00,,,0.15,Wunderground v.1.15,2013-02-19 20:20:00,
2013-02-19 15:25:00,53.9,53.1,31.66,SW,214,5.0,7.0,97,0.00,,,0.15,Wunderground v.1.15,2013-02-19 20:25:00,
2013-02-19 15:30:00,53.9,53.1,31.66,WSW,240,5.0,5.0,97,0.00,,,0.16,Wunderground v.1.15,2013-02-19 20:30:00,
2013-02-19 15:35:00,53.9,53.1,31.66,West,264,4.0,10.0,97,0.00,,,0.16,Wunderground v.1.15,2013-02-19 20:35:00,
2013-02-19 15:40:00,53.9,53.1,31.66,SSW,195,4.0,4.0,97,0.00,,,0.16,Wunderground v.1.15,2013-02-19 20:40:00,
2013-02-19 15:45:00,53.9,53.1,31.66,South,191,5.0,5.0,97,0.00,,,0.16,Wunderground v.1.15,2013-02-19 20:45:00,
2013-02-19 15:50:00,53.8,53.2,31.66,WSW,253,4.0,5.0,98,0.00,,,0.16,Wunderground v.1.15,2013-02-19 20:50:00,
2013-02-19 15:55:00,53.8,53.2,31.66,SW,232,4.0,7.0,98,0.00,,,0.16,Wunderground v.1.15,2013-02-19 20:55:00,
2013-02-19 16:05:00,53.9,53.3,31.66,WSW,241,4.0,6.0,98,0.00,,,0.17,Wunderground v.1.15,2013-02-19 21:05:00,
2013-02-19 16:10:00,53.9,53.3,31.66,West,275,4.0,4.0,98,0.00,,,0.17,Wunderground v.1.15,2013-02-19 21:10:00,
2013-02-19 16:15:00,53.9,53.3,31.66,WNW,286,3.0,4.0,98,0.00,,,0.17,Wunderground v.1.15,2013-02-19 21:15:00,
2013-02-19 16:25:00,53.8,53.2,31.66,WSW,249,3.0,6.0,98,0.00,,,0.17,Wunderground v.1.15,2013-02-19 21:25:00,
2013-02-19 16:30:00,53.8,53.2,31.66,WSW,240,4.0,4.0,98,0.00,,,0.17,Wunderground v.1.15,2013-02-19 21:30:00,
2013-02-19 16:35:00,53.7,53.1,31.66,SSW,204,3.0,4.0,98,0.00,,,0.17,Wunderground v.1.15,2013-02-19 21:35:00,
2013-02-19 16:40:00,53.7,53.1,31.66,SW,232,4.0,4.0,98,0.00,,,0.17,Wunderground v.1.15,2013-02-19 21:40:00,
2013-02-19 16:50:00,53.7,52.9,31.66,WSW,244,5.0,5.0,97,0.00,,,0.17,Wunderground v.1.15,2013-02-19 21:50:00,
2013-02-19 16:55:00,53.6,52.8,31.66,West,259,5.0,5.0,97,0.00,,,0.17,Wunderground v.1.15,2013-02-19 21:55:00,
2013-02-19 17:00:00,53.6,52.8,31.66,SW,221,4.0,4.0,97,0.00,,,0.17,Wunderground v.1.15,2013-02-19 22:00:00,
2013-02-19 17:05:00,53.6,52.8,31.66,WSW,237,4.0,4.0,97,0.00,,,0.17,Wunderground v.1.15,2013-02-19 22:05:00,
2013-02-19 17:15:00,53.4,52.6,31.66,West,262,3.0,3.0,97,0.00,,,0.17,Wunderground v.1.15,2013-02-19 22:15:00,
2013-02-19 17:20:00,53.4,52.6,31.66,WSW,240,5.0,5.0,97,0.00,,,0.17,Wunderground v.1.15,2013-02-19 22:20:00,
2013-02-19 17:25:00,53.3,52.2,31.66,WSW,243,4.0,5.0,96,0.00,,,0.17,Wunderground v.1.15,2013-02-19 22:25:00,
2013-02-19 17:30:00,53.3,52.2,31.66,SW,229,4.0,4.0,96,0.00,,,0.17,Wunderground v.1.15,2013-02-19 22:30:00,
2013-02-19 17:35:00,53.2,52.1,31.66,SW,217,4.0,4.0,96,0.00,,,0.17,Wunderground v.1.15,2013-02-19 22:35:00,
2013-02-19 17:40:00,53.2,52.1,31.66,WNW,291,5.0,10.0,96,0.00,,,0.17,Wunderground v.1.15,2013-02-19 22:40:00,
2013-02-19 17:45:00,53.2,51.8,31.66,WSW,257,5.0,10.0,95,0.00,,,0.17,Wunderground v.1.15,2013-02-19 22:45:00,
2013-02-19 17:50:00,53.2,51.8,31.66,WSW,253,3.0,4.0,95,0.00,,,0.17,Wunderground v.1.15,2013-02-19 22:50:00,
2013-02-19 17:55:00,53.1,52.0,31.66,West,260,3.0,4.0,96,0.00,,,0.17,Wunderground v.1.15,2013-02-19 22:55:00,
2013-02-19 18:00:00,53.0,51.9,31.66,SW,225,3.0,3.0,96,0.00,,,0.17,Wunderground v.1.15,2013-02-19 23:00:00,
2013-02-19 18:05:00,52.9,51.8,31.66,SW,236,3.0,5.0,96,0.00,,,0.17,Wunderground v.1.15,2013-02-19 23:05:00,
2013-02-19 18:10:00,52.8,51.7,31.66,SW,220,3.0,3.0,96,0.00,,,0.17,Wunderground v.1.15,2013-02-19 23:10:00,
2013-02-19 18:15:00,52.8,51.4,31.66,WSW,242,5.0,6.0,95,0.00,,,0.17,Wunderground v.1.15,2013-02-19 23:15:00,
2013-02-19 18:25:00,52.7,51.3,31.66,WSW,254,4.0,6.0,95,0.00,,,0.17,Wunderground v.1.15,2013-02-19 23:25:00,
2013-02-19 18:35:00,52.6,50.9,31.66,WSW,242,5.0,5.0,94,0.00,,,0.17,Wunderground v.1.15,2013-02-19 23:35:00,
2013-02-19 18:40:00,52.6,50.9,31.66,West,263,5.0,6.0,94,0.00,,,0.17,Wunderground v.1.15,2013-02-19 23:40:00,
2013-02-19 18:45:00,52.5,50.5,31.66,West,273,5.0,6.0,93,0.00,,,0.17,Wunderground v.1.15,2013-02-19 23:45:00,
2013-02-19 18:50:00,52.4,50.4,31.66,West,267,4.0,5.0,93,0.00,,,0.17,Wunderground v.1.15,2013-02-19 23:50:00,
2013-02-19 18:55:00,52.3,50.3,31.66,WSW,241,4.0,5.0,93,0.00,,,0.17,Wunderground v.1.15,2013-02-19 23:55:00,
2013-02-19 19:00:00,52.3,50.3,31.66,West,261,3.0,3.0,93,0.00,,,0.17,Wunderground v.1.15,2013-02-20 00:00:00,
2013-02-19 19:05:00,52.0,49.7,31.66,WSW,246,4.0,5.0,92,0.00,,,0.17,Wunderground v.1.15,2013-02-20 00:05:00,
2013-02-19 19:10:00,51.8,49.5,31.66,West,261,4.0,4.0,92,0.00,,,0.17,Wunderground v.1.15,2013-02-20 00:10:00,
2013-02-19 19:15:00,51.6,49.1,31.66,WNW,294,4.0,4.0,91,0.00,,,0.17,Wunderground v.1.15,2013-02-20 00:15:00,
2013-02-19 19:20:00,51.5,49.0,31.66,NW,309,4.0,11.0,91,0.00,,,0.17,Wunderground v.1.15,2013-02-20 00:20:00,
2013-02-19 19:25:00,51.5,49.0,31.66,West,277,4.0,11.0,91,0.00,,,0.17,Wunderground v.1.15,2013-02-20 00:25:00,
2013-02-19 19:35:00,51.4,48.9,31.66,West,280,4.0,4.0,91,0.00,,,0.17,Wunderground v.1.15,2013-02-20 00:35:00,
2013-02-19 19:40:00,51.4,48.9,31.66,West,276,2.0,2.0,91,0.00,,,0.17,Wunderground v.1.15,2013-02-20 00:40:00,
2013-02-19 19:45:00,51.3,48.8,31.66,SW,235,2.0,2.0,91,0.00,,,0.17,Wunderground v.1.15,2013-02-20 00:45:00,
2013-02-19 19:50:00,51.0,48.5,31.66,WSW,244,1.0,3.0,91,0.00,,,0.17,Wunderground v.1.15,2013-02-20 00:50:00,
2013-02-19 20:00:00,50.6,48.4,31.66,West,262,3.0,3.0,92,0.00,,,0.17,Wunderground v.1.15,2013-02-20 01:00:00,
2013-02-19 20:05:00,50.5,48.3,31.66,WSW,248,2.0,3.0,92,0.00,,,0.17,Wunderground v.1.15,2013-02-20 01:05:00,
2013-02-19 20:15:00,50.3,48.1,31.66,WSW,244,3.0,6.0,92,0.00,,,0.17,Wunderground v.1.15,2013-02-20 01:15:00,
2013-02-19 20:20:00,50.3,48.1,31.66,WSW,246,4.0,4.0,92,0.00,,,0.17,Wunderground v.1.15,2013-02-20 01:20:00,
2013-02-19 20:25:00,50.2,48.0,31.66,WNW,282,3.0,4.0,92,0.00,,,0.17,Wunderground v.1.15,2013-02-20 01:25:00,
2013-02-19 20:35:00,49.7,47.5,31.66,West,260,2.0,3.0,92,0.00,,,0.17,Wunderground v.1.15,2013-02-20 01:35:00,
2013-02-19 20:40:00,49.5,47.6,31.66,WNW,299,1.0,1.0,93,0.00,,,0.17,Wunderground v.1.15,2013-02-20 01:40:00,
2013-02-19 20:50:00,49.2,47.3,31.66,WNW,285,1.0,1.0,93,0.00,,,0.17,Wunderground v.1.15,2013-02-20 01:50:00,
2013-02-19 20:55:00,49.1,47.2,31.66,SW,234,1.0,1.0,93,0.00,,,0.17,Wunderground v.1.15,2013-02-20 01:55:00,
2013-02-19 21:00:00,48.9,47.0,31.66,NW,310,1.0,1.0,93,0.00,,,0.17,Wunderground v.1.15,2013-02-20 02:00:00,
2013-02-19 21:05:00,48.7,46.8,31.66,WNW,284,1.0,1.0,93,0.00,,,0.17,Wunderground v.1.15,2013-02-20 02:05:00,
2013-02-19 21:15:00,48.4,46.8,31.66,WNW,298,1.0,1.0,94,0.00,,,0.17,Wunderground v.1.15,2013-02-20 02:15:00,
2013-02-19 21:25:00,47.9,46.3,31.66,WNW,303,1.0,1.0,94,0.00,,,0.17,Wunderground v.1.15,2013-02-20 02:25:00,
2013-02-19 21:30:00,47.7,46.3,31.66,WNW,303,0.0,0.0,95,0.00,,,0.17,Wunderground v.1.15,2013-02-20 02:30:00,
2013-02-19 21:35:00,47.6,46.2,31.66,WNW,300,0.0,0.0,95,0.00,,,0.17,Wunderground v.1.15,2013-02-20 02:35:00,
2013-02-19 21:45:00,47.2,45.8,31.66,WNW,300,0.0,0.0,95,0.00,,,0.17,Wunderground v.1.15,2013-02-20 02:45:00,
2013-02-19 21:50:00,46.9,45.5,31.66,WNW,300,0.0,0.0,95,0.00,,,0.17,Wunderground v.1.15,2013-02-20 02:50:00,
2013-02-19 22:00:00,46.5,45.1,31.66,WNW,300,0.0,0.0,95,0.00,,,0.17,Wunderground v.1.15,2013-02-20 03:00:00,
2013-02-19 22:05:00,46.3,45.2,31.66,WNW,300,0.0,0.0,96,0.00,,,0.17,Wunderground v.1.15,2013-02-20 03:05:00,
2013-02-19 22:10:00,46.1,45.0,31.66,WNW,300,0.0,0.0,96,0.00,,,0.17,Wunderground v.1.15,2013-02-20 03:10:00,
2013-02-19 22:15:00,45.9,44.8,31.66,WNW,300,0.0,0.0,96,0.00,,,0.17,Wunderground v.1.15,2013-02-20 03:15:00,
2013-02-19 22:20:00,45.8,44.7,31.66,WNW,300,0.0,0.0,96,0.00,,,0.17,Wunderground v.1.15,2013-02-20 03:20:00,
2013-02-19 22:25:00,45.5,45.5,31.66,WNW,300,0.0,0.0,100,0.00,,,0.17,Wunderground v.1.15,2013-02-20 03:25:00,
2013-02-19 22:35:00,45.0,43.9,31.66,WNW,300,0.0,0.0,96,0.00,,,0.17,Wunderground v.1.15,2013-02-20 03:35:00,
2013-02-19 22:40:00,44.7,43.6,31.66,WNW,300,0.0,0.0,96,0.00,,,0.17,Wunderground v.1.15,2013-02-20 03:40:00,
2013-02-19 22:45:00,44.5,43.4,31.66,WNW,300,0.0,0.0,96,0.00,,,0.17,Wunderground v.1.15,2013-02-20 03:45:00,
2013-02-19 22:50:00,44.3,43.2,31.66,WNW,300,0.0,0.0,96,0.00,,,0.17,Wunderground v.1.15,2013-02-20 03:50:00,
2013-02-19 22:55:00,44.2,43.1,31.66,WNW,300,0.0,0.0,96,0.00,,,0.17,Wunderground v.1.15,2013-02-20 03:55:00,
2013-02-19 23:00:00,44.1,43.3,31.66,WNW,300,0.0,0.0,97,0.00,,,0.17,Wunderground v.1.15,2013-02-20 04:00:00,
2013-02-19 23:05:00,44.1,43.3,31.66,WNW,300,0.0,0.0,97,0.00,,,0.17,Wunderground v.1.15,2013-02-20 04:05:00,
2013-02-19 23:10:00,44.0,43.2,31.66,WNW,300,0.0,0.0,97,0.00,,,0.17,Wunderground v.1.15,2013-02-20 04:10:00,
2013-02-19 23:15:00,44.0,43.2,31.66,WNW,300,0.0,0.0,97,0.00,,,0.17,Wunderground v.1.15,2013-02-20 04:15:00,
2013-02-19 23:20:00,43.9,43.1,31.66,WNW,300,0.0,0.0,97,0.00,,,0.17,Wunderground v.1.15,2013-02-20 04:20:00,
2013-02-19 23:25:00,43.7,42.9,31.66,WNW,300,0.0,0.0,97,0.00,,,0.17,Wunderground v.1.15,2013-02-20 04:25:00,
2013-02-19 23:30:00,43.7,42.9,31.66,WNW,299,0.0,0.0,97,0.00,,,0.17,Wunderground v.1.15,2013-02-20 04:30:00,
2013-02-19 23:40:00,43.6,42.8,31.66,WNW,300,0.0,0.0,97,0.00,,,0.17,Wunderground v.1.15,2013-02-20 04:40:00,
2013-02-19 23:45:00,43.5,42.7,31.66,WNW,300,0.0,0.0,97,0.00,,,0.17,Wunderground v.1.15,2013-02-20 04:45:00,
2013-02-19 23:50:00,43.4,42.6,31.66,WNW,299,0.0,0.0,97,0.00,,,0.17,Wunderground v.1.15,2013-02-20 04:50:00,
2013-02-19 23:55:00,43.2,42.4,31.66,WNW,300,0.0,0.0,97,0.00,,,0.17,Wunderground v.1.15,2013-02-20 04:55:00,